Qualificati e Riqualificati
ULTIMI 120 GIORNI
Data Cavallo Prova T/Km Ipp.
25/04/2018 ZITA VEZ Q/RQ 1"19"5 PD
25/04/2018 ZENZERO NIKE Q/RQ 1"20"1 PD
25/04/2018 ZARINA BASS Q/RQ 1"20"9 PD
24/04/2018 ZUCCHERINO Q/RQ 1"19"3 TA
24/04/2018 TRAFALGAR LASER Q/RQ 1"15"0 TA
24/04/2018 ZIO DIPA Q/RQ 1"20"2 BO
24/04/2018 ZAR PARLANTE Q/RQ 1"19"3 BO
22/04/2018 ZEBRAGAL Q/RQ 1"18"9 TO
22/04/2018 ZIRCO JET Q/RQ 1"18"6 NA
22/04/2018 ZELDA RAB Q/RQ 1"19"9 NA
22/04/2018 ZOOM GRIF Q/RQ 1"18"6 BO
22/04/2018 ZELINDA Q/RQ 1"18"7 BO
22/04/2018 URANIUM TOR Q/RQ 1"16"4 BO
22/04/2018 STAR LINNY Q/RQ 1"16"3 BO
21/04/2018 ZUCCHERO GRIF Q/RQ 1"20"7 AV
21/04/2018 SIBELIUS DU LAC Q/RQ 1"18"7 AV
20/04/2018 ZAMBEZIA Q/RQ 1"19"1 NA
20/04/2018 VINCITORE Q/RQ 1"19"0 NA
20/04/2018 ZURIGO Q/RQ 1"16"8 MI
20/04/2018 ZIRCONE TAB Q/RQ 1"19"6 MI
20/04/2018 DIVISIONIST -US- Q/RQ 1"16"6 FO
19/04/2018 ZELANTE CR Q/RQ 1"18"5 ES
19/04/2018 ZEBRA MUTTLEY Q/RQ 1"20"0 BO
19/04/2018 ZARA BULL Q/RQ 1"20"0 BO
18/04/2018 ZIZZOLA Q/RQ 1"18"7 PD
18/04/2018 ZITELLA JET Q/RQ 1"18"1 PD
18/04/2018 ZENTERAPY JET Q/RQ 1"17"4 PD
18/04/2018 ZANNA JET Q/RQ 1"18"3 PD
18/04/2018 ZABAIONE MATTO Q/RQ 1"21"3 PD
17/04/2018 ZARRINA Q/RQ 1"19"6 TA
17/04/2018 THUNDER RIVARCO Q/RQ 1"15"9 TA
17/04/2018 TOSCANO BIEFFE Q/RQ 1"16"7 BO
15/04/2018 ZIPOLO Q/RQ 1"17"3 TO
15/04/2018 TEMPESTA DI GRANA Q/RQ 1"16"0 TO
15/04/2018 VULCANO SPIN Q/RQ 1"18"0 MG
15/04/2018 THOR VALD Q/RQ 1"16"5 BO
15/04/2018 PETER PAN LG Q/RQ 1"16"7 BO
14/04/2018 ZETA FEZ Q/RQ 1"18"2 RM
14/04/2018 UNTOUCHABLE Q/RQ 1"18"0 MO
13/04/2018 ZARINA CAF Q/RQ 1"16"9 NA
12/04/2018 PLACIDAZ Q/RQ 1"17"6 FG
12/04/2018 ZIVA GSO Q/RQ 1"20"3 BO
12/04/2018 ZENOX BI Q/RQ 1"20"6 BO
11/04/2018 ZELDA VIK Q/RQ 1"21"1 PD
10/04/2018 RAIN DEL BRENTA Q/RQ 1"19"1 TS
10/04/2018 ZAR SHEBA Q/RQ 1"17"1 TA
10/04/2018 ZANZARO` Q/RQ 1"17"8 TA
10/04/2018 UDIN JET Q/RQ 1"17"0 TA
08/04/2018 ZANZARINA AN Q/RQ 1"19"8 TO
08/04/2018 ZICO LJ Q/RQ 1"19"6 NA
08/04/2018 ZANYMEDE FAS Q/RQ 1"18"1 NA
07/04/2018 ZENIT MOW Q/RQ 1"17"5 MO
05/04/2018 ZINGARO ROSS Q/RQ 1"19"0 BO
05/04/2018 ZEUS OLM Q/RQ 1"18"8 BO
05/04/2018 UGANDA GRIF Q/RQ 1"18"8 BO
04/04/2018 ZEUS BALDO Q/RQ 1"20"9 PD
04/04/2018 ZENOBIAST Q/RQ 1"20"6 PD
04/04/2018 ZANTE LASER Q/RQ 1"16"4 FO
04/04/2018 ZAMBIA OP Q/RQ 1"16"4 FO
04/04/2018 ZAHRA MIL Q/RQ 1"20"2 ES
30/03/2018 ZORRO GIULIA Q/RQ 1"19"6 NA
30/03/2018 ZUWARA GAR Q/RQ 1"16"1 MI
30/03/2018 ZOSCA ETOILE Q/RQ 1"18"4 FO
30/03/2018 ZEUS DELONG Q/RQ 1"19"0 FO
30/03/2018 ZARKAVA ANS Q/RQ 1"17"0 FO
29/03/2018 PAKY FOX Q/RQ 1"17"8 FG
29/03/2018 ZOELE ZS Q/RQ 1"19"1 BO
27/03/2018 ZEPHYRUS MASK Q/RQ 1"20"2 BO
27/03/2018 ZAGORIT Q/RQ 1"17"6 BO
25/03/2018 ZELK GADD Q/RQ 1"19"9 BO
24/03/2018 ZAKIEL Q/RQ 1"19"3 TO
24/03/2018 ZABINKA Q/RQ 1"20"3 TO
24/03/2018 TRISTAN DI NO Q/RQ 1"17"3 TO
24/03/2018 RICHELIEU GSM Q/RQ 1"17"3 TO
24/03/2018 ZADIG DEL RONCO Q/RQ 1"19"4 RM
24/03/2018 ZEUS GROUP Q/RQ 1"19"4 AV
24/03/2018 UPTOWNGIRL FONT Q/RQ 1"18"7 AV
23/03/2018 ZEBRA CROSSING Q/RQ 1"19"6 MI
21/03/2018 ZIPRAS EFFE Q/RQ 1"17"0 PD
20/03/2018 ZOLIE DU LAC Q/RQ 1"20"1 TA
20/03/2018 ZAGARA CLAD Q/RQ 1"19"8 TA
20/03/2018 TIFFANY FOX Q/RQ 1"17"1 TA
20/03/2018 ZENOZ Q/RQ 1"19"9 FI
18/03/2018 ZAFARANH MEC Q/RQ 1"19"3 NA
17/03/2018 ZOLA Q/RQ 1"20"3 TO
17/03/2018 ZUMA BLESSED Q/RQ 1"18"5 RM
17/03/2018 ZIBY UR Q/RQ 1"17"9 RM
17/03/2018 ROCCO OF GLORY Q/RQ 1"17"0 BO
17/03/2018 ORO FKS Q/RQ 1"17"0 BO
17/03/2018 ZETA CRIL Q/RQ 1"21"6 AV
17/03/2018 ZARINA RAL Q/RQ 1"21"7 AV
17/03/2018 ZANIMEDE PLUS SM Q/RQ 1"20"9 AV
16/03/2018 ZOLE HAL SM Q/RQ 1"18"4 NA
16/03/2018 ZOLLER ROC Q/RQ 1"15"9 MI
16/03/2018 VERBEECK ALTER Q/RQ 1"20"4 MG
16/03/2018 ZELIG Q/RQ 1"17"3 FO
13/03/2018 TOTEM POINT Q/RQ 1"17"9 TA
13/03/2018 NAUTILUS GIANFI Q/RQ 1"17"6 TA
11/03/2018 ZUFFOLO JET Q/RQ 1"18"8 NA
11/03/2018 ZACK OP Q/RQ 1"18"7 NA
10/03/2018 ZONZO Q/RQ 1"17"6 TO
10/03/2018 ZARDA Q/RQ 1"16"9 TO
10/03/2018 ZANZIBAR DI GRANA Q/RQ 1"18"4 TO
10/03/2018 ZAGORKA Q/RQ 1"17"4 TO
10/03/2018 USKAN DL Q/RQ 1"17"8 TO
10/03/2018 TROY SPEED MEC Q/RQ 1"15"1 TO
10/03/2018 ZOOM DI COSTA Q/RQ 1"20"6 BO
10/03/2018 TERRIBLE MODEL Q/RQ 1"17"2 AV
09/03/2018 ZINGARA THREE Q/RQ 1"17"6 MI
09/03/2018 ZANETTI Q/RQ 1"17"8 MI
09/03/2018 ZAGROS CR Q/RQ 1"19"9 MI
08/03/2018 ZANGOLA BARGAL Q/RQ 1"18"2 FG
08/03/2018 TURIN JOYEUSE Q/RQ 1"18"4 FG
07/03/2018 ZARAGOZA FERM Q/RQ 1"20"4 RM
07/03/2018 ZANNA PAN Q/RQ 1"20"4 RM
04/03/2018 SALINAS GI Q/RQ 1"17"3 NA
04/03/2018 ZINGARO GADD Q/RQ 1"20"8 BO
03/03/2018 ZELINDA JACK Q/RQ 1"21"1 AV
01/03/2018 X Q/RQ 1"16"1 PC
28/02/2018 VERCIGETORY CHAMP Q/RQ 1"19"0 PD
28/02/2018 ZEUS SAN Q/RQ 1"19"8 AV
28/02/2018 ZAGABRIA LJ Q/RQ 1"20"1 AV
28/02/2018 ODEON DEGLI ULIVI Q/RQ 1"18"7 AV
27/02/2018 ZEN PAL FERM Q/RQ 1"17"5 FI
25/02/2018 ZILAN VERYNICE Q/RQ 1"18"3 NA
25/02/2018 ZIO ROC Q/RQ 1"18"6 MI
25/02/2018 ZENALDA Q/RQ 1"18"7 BO
23/02/2018 SOLITARIO Q/RQ 1"17"7 MG
22/02/2018 ZOE SALDANA Q/RQ 1"20"2 BO
22/02/2018 ZIZOU Q/RQ 1"19"7 BO
22/02/2018 ZENOCOLO` Q/RQ 1"20"2 BO
21/02/2018 FINE ROMANCE -F- Q/RQ 1"20"6 RM
21/02/2018 ZICO ROSSO Q/RQ 1"20"9 PD
21/02/2018 ZEUS TR Q/RQ 1"20"8 PD
21/02/2018 ZARKAIA NP Q/RQ 1"19"7 PD
21/02/2018 TIMOLOLO STIFT Q/RQ 1"16"7 PD
21/02/2018 SCIPIONE NG Q/RQ 1"17"3 PD
20/02/2018 ZOLIE DU LAC Q/RQ 1"20"9 TA
20/02/2018 ZEMETRA MEC Q/RQ 1"20"5 TA
20/02/2018 ZEFIRUSS Q/RQ 1"19"1 TA
20/02/2018 VITTORIO FS Q/RQ 1"19"5 TA
20/02/2018 THIS BOY Q/RQ 1"17"5 TA
20/02/2018 SILVENTONY LIKE Q/RQ 1"17"3 TA
20/02/2018 SALICE JET Q/RQ 1"16"9 TA
18/02/2018 ZI ZI JEANMARIE Q/RQ 1"18"6 MI
17/02/2018 ZEUS CLEMAR Q/RQ 1"21"2 AV
17/02/2018 TATANKA CAS Q/RQ 1"18"9 AV
16/02/2018 ULALA` DEGLIULIVI Q/RQ 1"17"2 NA
16/02/2018 ZOBEIDE ERRE Q/RQ 1"20"6 MG
15/02/2018 SCARLET LUX Q/RQ 1"15"2 FG
15/02/2018 ZOLLY GRIF Q/RQ 1"19"4 BO
15/02/2018 ZODIAC DANY GRIF Q/RQ 1"17"6 BO
14/02/2018 ZOE LEONE Q/RQ 1"21"4 AV
13/02/2018 FOREMAN GLATIGNE Q/RQ 1"19"8 FI
11/02/2018 ZAGREB AS Q/RQ 1"16"9 NA
11/02/2018 ZODIAK SI Q/RQ 1"19"5 MI
11/02/2018 ZORRO CAPAR Q/RQ 1"16"1 FI
10/02/2018 ZAMBANA CIELLE Q/RQ 1"19"8 AV
10/02/2018 UTEECA GIEGI Q/RQ 1"19"3 AV
09/02/2018 ZANITA LUIS Q/RQ 1"15"8 NA
09/02/2018 ZAIRA DVS Q/RQ 1"19"1 NA
09/02/2018 ZOHAN DEI LUPI Q/RQ 1"18"2 MI
09/02/2018 ZARINA REK Q/RQ 1"20"9 MG
08/02/2018 RICKI GILL Q/RQ 1"17"8 FG
07/02/2018 ZOLDAS Q/RQ 1"19"7 RM
07/02/2018 ZACHARY DANY Q/RQ 1"21"7 AV
07/02/2018 TOTEM Q/RQ 1"19"3 AV
06/02/2018 ZUFFA OP Q/RQ 1"19"7 FI
06/02/2018 ZEROINCONDOTTA OP Q/RQ 1"19"7 FI
06/02/2018 ZANDROZ Q/RQ 1"19"8 FI
04/02/2018 ZORYGAL Q/RQ 1"20"9 MG
04/02/2018 OCEAN TWELVE Q/RQ 1"16"2 MG
03/02/2018 VIZIO MAS NP Q/RQ 1"16"8 TV
03/02/2018 ZED WISE AS Q/RQ 1"19"1 RM
03/02/2018 ZATHURA Q/RQ 1"19"3 RM
03/02/2018 TIGER CAPAR Q/RQ 1"17"7 AV
02/02/2018 ZANTE DI CASEI Q/RQ 1"17"6 NA
02/02/2018 URSUS ROC Q/RQ 1"17"5 NA
02/02/2018 ROCKFELLER FONT Q/RQ 1"17"6 NA
01/02/2018 DEMON BAR -F- Q/RQ 1"16"5 AL
30/01/2018 ZOE RISAIA TRGF Q/RQ 1"17"2 FI
30/01/2018 ZODIAC DEL RONCO Q/RQ 1"16"8 FI
28/01/2018 ZSABRINA GNAFA` Q/RQ 1"18"3 MI
28/01/2018 ZIA PINA GNAFA` Q/RQ 1"19"0 MI
28/01/2018 ZERTOR Q/RQ 1"18"0 MI
28/01/2018 TIMO SERPILLO Q/RQ 1"17"5 MI
27/01/2018 ZETA SPRITZ Q/RQ 1"17"7 TV
27/01/2018 ZAHRA GAR Q/RQ 1"18"6 TV
27/01/2018 ZAILA D`ETE Q/RQ 1"16"8 AV
27/01/2018 RAMPICHINO JET Q/RQ 1"17"2 AV
26/01/2018 FANDANGO BAR -F- Q/RQ 1"20"0 NA
24/01/2018 ZARA JET Q/RQ 1"18"7 RM
24/01/2018 RARITY Q/RQ 1"16"2 RM
23/01/2018 ZIMMER GRIF Q/RQ 1"18"3 FI
23/01/2018 ZETA DEI VENTI Q/RQ 1"20"5 FI
23/01/2018 ZEM JET Q/RQ 1"18"4 FI
23/01/2018 ZACCAGNA Q/RQ 1"17"7 FI
21/01/2018 SEMON PHOTO SM Q/RQ 1"17"8 MG
20/01/2018 ZAR Q/RQ 1"19"0 TV
20/01/2018 ZERINOZ Q/RQ 1"20"2 RM
20/01/2018 ZAC DORIAL Q/RQ 1"20"4 AV
20/01/2018 VELVETLIKE ERRE Q/RQ 1"17"2 AV
17/01/2018 ZIBELLINO CR Q/RQ 1"19"8 AV
17/01/2018 ZE PEQUENO LONS Q/RQ 1"21"2 AV
16/01/2018 TAX GRIF Q/RQ 1"16"8 FI
16/01/2018 OKEEF Q/RQ 1"17"1 FI
14/01/2018 ZINCO PETRAL Q/RQ 1"21"4 MG
13/01/2018 CARLOS GREENWOOD -D- Q/RQ 1"16"1 TV
13/01/2018 ZAR DEI FEBI Q/RQ 1"19"3 RM
13/01/2018 ZIL DOWN SLIDE SM Q/RQ 1"19"4 AV
12/01/2018 ZACHAR BAY Q/RQ 1"17"1 MI
11/01/2018 UDIANROS VERYNICE Q/RQ 1"17"7 FG
11/01/2018 SAVOIR Q/RQ 1"17"3 FG
09/01/2018 ZORRO ERN Q/RQ 1"18"6 NA
09/01/2018 ZIBALDONE JET Q/RQ 1"18"7 NA
09/01/2018 TUONO CAPAR Q/RQ 1"17"2 NA
07/01/2018 ZAYN MALIK Q/RQ 1"17"8 MI
07/01/2018 ZANIA DI JESI Q/RQ 1"20"4 MG
07/01/2018 RE DI HBD Q/RQ 1"17"4 MG
07/01/2018 ZELTWEG AS Q/RQ 1"20"1 FI
07/01/2018 SAND GRENADE -US- Q/RQ 1"16"7 FI
07/01/2018 OREGON JOLLY Q/RQ 1"16"6 FI
06/01/2018 ZOFRAN DE GLERIS Q/RQ 1"18"1 BO
06/01/2018 ZEPPOLENNART ONGI Q/RQ 1"20"2 BO
06/01/2018 TOUCHE` LG Q/RQ 1"18"1 BO
06/01/2018 TERESA MAIL Q/RQ 1"16"7 BO
06/01/2018 PIPINO BAGGINS Q/RQ 1"14"1 BO
06/01/2018 PABLO DI JESOLO Q/RQ 1"16"7 AV
05/01/2018 MATTEO Q/RQ 1"17"7 NA
03/01/2018 ZAVIA GM Q/RQ 1"21"7 AV
01/01/2018 ZIDANE GRIF Q/RQ 1"18"7 BO
31/12/2017 ZILOE` DEIMAR Q/RQ 1"21"8 MG
31/12/2017 ZAIRA LOR Q/RQ 1"22"9 MG
31/12/2017 ZDENEK ZEMAN JBAY Q/RQ 1"20"9 BO
31/12/2017 VINCENT TRIO Q/RQ 1"21"1 BO
30/12/2017 ZIBI BI Q/RQ 1"19"6 TV
30/12/2017 ZENITH ORO Q/RQ 1"22"0 RM
29/12/2017 ZAUBER FERM -DE- Q/RQ 1"19"6 TO
29/12/2017 ZINGARA BAR Q/RQ 1"20"3 TO
29/12/2017 ZURIGO DVS Q/RQ 1"19"6 AV
29/12/2017 ZORBA HORSE Q/RQ 1"19"9 AV
29/12/2017 ZARINA IZ Q/RQ 1"20"6 AV